Regional Weather Roundup
Issued by NWS

Home | Current Version | Previous Version | Text Only | Print | Product List | Glossary On
Versions: 1 2 3 4 5 6 7 8 9 10 11 12 13 14 15 16 17 18 19 20 21 22 23 24 25 26 27 28 29 30 31 32 33 34 35 36 37 38 39 40 41 42 43 44 45 46 47 48 49 50
000
ASUS42 KTBW 312010
RWRFL
FLORIDA REGIONAL WEATHER ROUNDUP
NATIONAL WEATHER SERVICE TAMPA BAY RUSKIN FL
400 PM EDT THU JUL 31 2014

NOTE: "FAIR" INDICATES FEW OR NO CLOUDS BELOW 12,000 FEET WITH NO
SIGNIFICANT WEATHER AND/OR OBSTRUCTIONS TO VISIBILITY.


FLZ001>010-012>015-112-114-115-312100-
PANHANDLE FLORIDA

CITY           SKY/WX    TMP DP  RH WIND       PRES   REMARKS
PENSACOLA      SUNNY     87  59  38 MISG      30.00F
PENSACOLA NAS  PTSUNNY   85  63  47 SW13      30.00F
MILTON NAS     PTSUNNY   87  62  43 VRB5      30.00F
CRESTVIEW      MOSUNNY   89  55  31 CALM      30.02S
DUKE FIELD     MOSUNNY   89  63  42 VRB7      30.00F
VALPARAISO     MOSUNNY   86  60  41 S12       30.00F
MARY ESTHER    SUNNY     86  55  34 S13       29.99F
TRI COUNTY     FAIR      89  58  34 CALM      30.00F
PANAMA CITY    FAIR      88  59  37 SW8       29.97F
TYNDALL AFB    SUNNY     86  63  45 W13       30.00S
APALACHICOLA   SUNNY     83  66  56 SW13      29.98F

STATION/POSITION SKY/WX   TEMP    WIND        PRES    WAVE   SWELL
                          AIR SEA DIR/SP/G            HT/PER HT/PER
                          (F)     (DEG/KT/KT) (MB)    (FT/S) (FT/S)
30.1N   87.6W              82 85  260/  4/  6 1016.4F   1
29.2N   88.2W              82 87   40/  6/  8 1016.7
28.8N   86.0W              82 87  310/  4/  8 1016.1F   1/ 9   2/ 9
PANAMA CITY BEAC           81 81  260/ 12/ 13 1015.9F
CAPE SAN BLAS    NOT AVBL
TOWER C                    82     240/  4/  5 1015.5F
28.5N   84.5W              83 87  340/  2/  6 1015.8F   1/ 8   2/ 8

$$
FLZ011-016>038-118-127-128-134-139-239-312100-
NORTH FLORIDA

CITY           SKY/WX    TMP DP  RH WIND       PRES   REMARKS
MARIANNA       MOSUNNY   89  63  41 VRB7      29.98F
TALLAHASSEE    PTSUNNY   91  62  37 NW8       29.97F
PERRY          PTSUNNY   88  59  37 CALM      29.98F
CROSS CITY       N/A     92  63  38 W6        29.96F
GAINESVILLE    MOSUNNY   91  70  49 W14       29.95F HX  96
MAYPORT NAS    PTSUNNY   91  69  48 SE15      29.97F HX  96
JACKSONVILLE   PTSUNNY   91  65  41 E12       29.96F
JAX NAS        PTSUNNY   94  65  38 E13       29.96F HX  96
JAX CRAIG      MOSUNNY   90  65  43 E10       29.97F
JAX CECIL      PTSUNNY   90  70  51 SE7       29.96F HX  95
FERNANDINA BEA FAIR      90  70  51 SE12G18   29.96F HX  95
ST AUGUSTINE   MOSUNNY   91  74  57 E10       29.97F HX 100

STATION/POSITION SKY/WX   TEMP    WIND        PRES    WAVE   SWELL
                          AIR SEA DIR/SP/G            HT/PER HT/PER
                          (F)     (DEG/KT/KT) (MB)    (FT/S) (FT/S)
SHELL POINT                86     160/ 10/ 11   N/A
KEATON BEACH               85     260/ 11/ 12 1015.3F
CEDAR KEY                  87     270/  7/ 10 1015.7F
FERNANDINA                 87 86  130/  8/ 14 1014.6F
30.7N   81.3W                 86                N/A     2/ 9
MAYPORT                    87 86  120/  9/ 15   N/A
31.4N   80.9W              85 86  160/ 12/ 14 1015.4F   2/ 6   2/ 9
ST AUGUSTINE               82     110/  8/  9 1015.5F

$$
FLZ040-043>046-052-053-057-058-063-144-312100-
INTERIOR CENTRAL FLORIDA

CITY           SKY/WX    TMP DP  RH WIND       PRES   REMARKS
OCALA          MOSUNNY   91  66  43 CALM      29.96F
LEESBURG       MOSUNNY   93  70  46 VRB3      29.95F HX  99
SANFORD        CLOUDY    92  76  59 VRB3      29.93F HX 104
ORLANDO EXEC   PTSUNNY   92  73  53 SW10      29.94F HX 100
ORLANDO INTL   PTSUNNY   91  70  49 S6        29.94F HX  96
KISSIMMEE      MOSUNNY   91  72  52 S7        29.95F HX  98
WINTER HAVEN   MOSUNNY   91  67  44 SW7       29.97F
LAKELAND       MOSUNNY   91  64  40 NW8       29.96F
BARTOW         MOSUNNY   90  64  43 NW7       29.97F
OKEECHOBEE     CLOUDY    82  75  78 MISG      29.97S THUNDER

$$
FLZ041-047-054-059-064-141-147-312100-
EAST CENTRAL FLORIDA

CITY           SKY/WX    TMP DP  RH WIND       PRES   REMARKS
ORMOND BEACH   MOSUNNY   86  75  70 E9G16     29.96F HX  95
DAYTONA BEACH  MOSUNNY   89  76  65 E12       29.95F HX 100
DELAND         PTCLDY    86  75  70 E9        29.95F HX  95
NEW SMYRNA BEA MOSUNNY   88  77  70 E12G20    29.95F HX 100
JFK SPACE CTR  MOSUNNY   87  81  83 SE12      29.95S HX 104
TITUSVILLE     PTSUNNY   88  79  74 SE14      29.95F HX 102
CAPE CANAVERAL MOSUNNY   88  77  71 SE16      29.94F HX 100
PATRICK AFB    SUNNY     87  79  76 SE14      29.95F HX 102
MELBOURNE      MOSUNNY   89  77  67 SE14      29.94F HX 101
VERO BEACH     CLOUDY    82  75  79 SE13      29.96F
FT PIERCE      CLOUDY    81  73  76 SE7       29.97F
STUART         CLOUDY    77  73  88 NE7       29.98F

STATION/POSITION SKY/WX   TEMP    WIND        PRES    WAVE   SWELL
                          AIR SEA DIR/SP/G            HT/PER HT/PER
                          (F)     (DEG/KT/KT) (MB)    (FT/S) (FT/S)
28.5N   80.2W              83 84  130/ 10/ 12 1015.1F
28.9N   78.5W              83 84  180/ 12/ 14 1016.1R   2/ 8   2/ 8
TRIDENT PIER               88 85  120/  7/ 11 1014.0F
28.4N   80.5W                 85                N/A     2/ 3
27.6N   80.2W                 83                N/A     1/ 3

$$
FLZ050-056-061-142-242-148-248-149-249-151-251-155-255-
160-260-312100-
WEST CENTRAL FLORIDA

CITY           SKY/WX    TMP DP  RH WIND       PRES   REMARKS
CRYSTAL RIVER  FAIR      90  64  43 W12       29.96F
INVERNESS      MOCLDY    91  61  35 CALM      29.96F
BROOKSVILLE    SUNNY     91  64  40 NW9       29.97F
ZEPHYRHILLS    FAIR      91  57  31 NW5       29.97S
CLEARWATER     PTSUNNY   88  69  53 NW10      29.97F
TAMPA INTL     MOSUNNY   89  68  49 W10       29.96F
TAMPA EXEC     MOSUNNY   95  68  41 NW3       29.96F HX  99
PLANT CITY     MOSUNNY   91  61  35 W3        29.98F
MACDILL AFB    MOSUNNY   91  71  51 W7        29.97F HX  97
ST PETERSBURG  CLOUDY    88  68  51 W8        29.95S
SARASOTA       MOSUNNY   88  67  49 W9        29.97S
VENICE         FAIR      90  72  55 NW14      29.98F HX  96

STATION/POSITION SKY/WX   TEMP    WIND        PRES    WAVE   SWELL
                          AIR SEA DIR/SP/G            HT/PER HT/PER
                          (F)     (DEG/KT/KT) (MB)    (FT/S) (FT/S)
CEDAR KEY                  87     270/  7/ 10 1015.7F
28.5N   84.5W              83 87  340/  2/  6 1015.8F   1/ 8   2/ 8
27.3N   84.3W                 88                N/A     1/ 4
CLEARWATER BEACH           85 88  310/  7/ 10 1014.9F
MIDDLE TAMPA BAY           86     280/  9/ 11 1015.2F
VENICE                     85 90  290/ 10/ 12 1014.5F

$$
FLZ066-069-070-075>078-162-262-165-265-312100-
SOUTHWEST FLORIDA AND KEYS

CITY           SKY/WX    TMP DP  RH WIND       PRES   REMARKS
PUNTA GORDA    MOSUNNY   93  70  46 W7        29.96F HX  99
FT MYERS       MOSUNNY   93  70  46 NW9       29.95F HX  99
SOUTHWEST INTL CLOUDY    82  74  76 S10       29.96F
NAPLES         CLOUDY    85  75  72 NE3       29.96F
MARCO ISLAND   PTCLDY    88  75  66 NE3       29.97F HX  97
MARATHON       SUNNY     92  76  59 S6        29.97F HX 104
KEY WEST NAS   PTSUNNY   87  74  64 W9        29.97F HX  95
KEY WEST INTL  PTSUNNY   87  75  67 N12G18    29.97F HX  96

STATION/POSITION SKY/WX   TEMP    WIND        PRES    WAVE   SWELL
                          AIR SEA DIR/SP/G            HT/PER HT/PER
                          (F)     (DEG/KT/KT) (MB)    (FT/S) (FT/S)
VENICE                     85 90  290/ 10/ 12 1014.5F
NAPLES                     84 94  160/  2/  3 1015.2F
DRY TORTUGAS               85     320/  4/  5 1014.8F
NW FL BAY                  88     170/  4/  8 1015.5F
SAND KEY                   85     230/  6/  8 1014.9F
SOMBRERO KEY               88     210/  4/  5 1015.6F
LONG KEY                   87 91  250/  2/  5 1016.1F
MOLASSES REEF              85 87  220/  7/  8 1014.8F

$$
FLZ067-068-071>074-168-172>174-312100-
SOUTHEAST FLORIDA

CITY           SKY/WX    TMP DP  RH WIND       PRES   REMARKS
W PALM BEACH   PTSUNNY   80  73  79 W13       29.99R THUNDER
FT LAUDER-EXEC HVY RAIN  77  77 100 N8        30.00R VSB 1/4
FT LAUDERDALE  PTSUNNY   89  74  60 SE9       29.96S HX  98
POMPANO BEACH  PTSUNNY  N/A N/A N/A MISG      29.99R
PEMBROKE PINES LGT RAIN  81  73  76 SW13      29.98S
OPA LOCKA      LGT RAIN  79  74  84 W12G21    29.97S
MIAMI          PTSUNNY   88  74  63 SE10G20   29.97S HX  96
WEST KENDALL   PTSUNNY   93  70  46 S8        29.95F HX  99
HOMESTEAD      MOSUNNY   89  74  62 S7        29.96F HX  98

STATION/POSITION SKY/WX   TEMP    WIND        PRES    WAVE   SWELL
                          AIR SEA DIR/SP/G            HT/PER HT/PER
                          (F)     (DEG/KT/KT) (MB)    (FT/S) (FT/S)
PORT EVERGLADES            87     150/ 10/ 13 1014.9
VIRGINIA KEY               86 88  160/  9/ 13   N/A
LAKE WORTH                 85 84  160/ 11/ 14 1014.9R
FOWEY ROCKS                87 86  160/ 12/ 13 1015.1F
SETTLEMENT POINT           85     160/  9/ 11 1015.9F

$$




USA.gov is the U.S. government's official web portal to all federal, state and local government web resources and services.